Probability
6 6 6 4 3 3 4 4 4 4 3 3 3 3 3 3 3 3 3 3 3 3 3 3 3 3 3 2 1 1 2 3 3 3 3 3 3 3 3 3 3 3 3
6 6 6 4 3 3 4 4 4 4 3 3 3 3 3 3 3 3 3 3 3 3 3 3 3 3 3 3 2 2 3 3 3 3 3 3 3 3 3 3 3 3 3
6 5 4 3 3 3 3 4 4 3 3 3 3 3 3 3 3 2 2 1 1 2 3 3 3 3 3 3 3 3 3 3 3 3 3 3 3 3 3 3 3 3 3
4 4 3 2 3 3 3 3 3 3 3 3 3 3 3 3 3 1 1 0 0 1 3 3 3 3 3 3 3 3 3 3 3 3 3 3 3 3 3 3 3 3 3
3 3 2 2 3 4 3 2 2 3 3 3 3 3 3 3 3 2 0 0 0 1 2 3 3 3 3 3 3 3 3 3 3 3 3 3 3 3 3 3 3 3 3
1 2 3 3 5 6 5 3 2 3 3 3 3 3 3 3 3 1 0 0 0 0 1 3 3 3 3 3 3 3 3 3 3 3 3 3 3 3 3 3 3 3 3
0 1 2 4 5 6 5 3 3 3 4 3 3 3 3 3 3 1 0 0 0 0 1 2 3 3 3 3 3 3 3 3 3 3 3 3 3 3 3 3 3 3 3
1 1 2 4 4 4 4 4 4 5 5 4 3 3 3 3 2 1 0 0 0 0 1 2 3 3 3 3 3 3 3 3 3 3 3 3 3 3 3 3 3 3 3
0 1 2 3 3 3 5 5 5 6 6 5 4 3 3 3 2 1 0 0 0 0 1 2 3 3 3 3 3 3 3 3 3 3 3 3 3 3 3 3 3 3 3
0 0 1 1 2 3 4 5 5 5 6 6 4 3 3 2 1 0 0 0 0 0 1 2 3 3 3 3 3 3 3 3 3 3 3 3 3 3 3 3 3 3 3
0 0 1 2 3 3 2 3 5 5 5 5 5 4 3 1 1 0 0 0 0 1 1 1 3 3 3 3 3 3 3 3 3 3 3 3 3 3 3 3 3 3 3
0 0 1 2 3 4 3 3 5 6 4 4 4 4 3 1 0 0 0 0 0 0 0 1 2 3 3 3 3 3 3 3 3 3 3 3 3 3 3 3 3 3 3
0 0 1 1 2 3 3 3 4 4 3 3 3 4 3 2 1 1 0 0 0 0 0 0 1 2 3 3 3 3 3 3 3 3 3 3 3 3 3 3 3 3 3
0 0 0 0 0 1 3 3 3 2 2 2 3 3 3 3 3 2 1 1 0 0 0 0 0 1 2 3 3 3 3 3 3 3 3 3 3 3 3 3 3 3 3
0 0 0 0 0 1 2 3 3 2 1 1 2 2 3 3 3 3 3 2 1 0 0 0 0 0 1 2 2 2 3 3 3 3 3 3 3 3 3 3 3 3 3
0 0 0 0 0 0 2 3 3 2 1 0 1 1 1 2 3 3 3 3 1 0 0 0 0 0 1 2 2 3 3 3 3 3 3 3 3 3 3 3 3 3 3
0 0 0 0 0 0 1 2 1 1 0 0 0 0 0 1 2 3 3 3 2 1 0 0 0 0 0 1 3 3 3 3 3 3 3 3 3 3 3 3 3 3 2
0 0 0 0 0 0 1 1 0 0 0 0 0 0 0 0 1 1 3 3 3 2 1 0 0 0 0 1 2 3 3 3 3 3 3 3 3 3 3 3 3 2 1
0 0 0 0 0 0 0 0 0 0 0 0 0 0 0 0 0 1 2 3 3 3 2 1 0 0 0 1 2 3 3 2 2 2 3 3 3 3 3 3 2 1 0
0 0 0 0 0 0 0 0 0 0 0 0 0 0 0 0 0 0 1 1 2 3 3 1 0 0 0 1 2 3 2 1 1 1 1 2 2 3 3 2 1 0 0
0 0 0 0 0 0 1 1 0 0 0 0 0 0 0 0 0 0 0 0 1 2 3 2 1 0 0 1 2 3 2 1 0 0 0 1 1 1 2 1 0 0 0
0 0 0 0 0 0 1 2 1 0 0 0 0 0 0 0 0 0 0 0 0 1 2 3 2 0 0 0 1 2 1 0 0 1 0 0 0 0 0 0 0 0 0
0 0 0 0 0 0 1 2 1 0 0 0 0 0 0 0 0 0 0 0 0 0 1 2 1 0 0 0 0 0 0 0 0 0 0 0 0 0 0 0 0 0 0
0 0 0 0 0 0 0 1 1 0 0 0 0 0 0 0 0 0 0 0 0 0 0 0 0 0 0 0 0 0 0 0 0 0 0 0 0 0 0 0 0 0 0
0 0 0 0 0 0 0 0 0 0 0 0 0 0 0 0 0 0 0 0 0 0 0 0 0 0 0 0 0 0 0 0 0 0 0 0 0 0 0 0 0 0 0
0 0 0 0 0 0 0 0 0 0 0 0 0 0 0 0 0 0 0 0 0 0 0 0 0 0 0 0 0 0 1 1 1 0 0 0 0 0 0 0 0 0 0
Wind_Speed
3 3 3 3 4 3 4 4 4 4 4 4 4 4 4 4 4 3 3 7 8 8 9 9 9 8 8 8 8 8 8 8 9 9 9 9 9 9 9 8 8 7 7
4 4 4 4 4 4 4 4 5 4 4 3 4 5 5 5 5 5 4 5 8 8 8 9 10 10 9 9 9 8 8 8 9 9 9 9 8 8 8 7 6 6 6
4 4 4 4 4 4 4 3 4 3 4 4 5 5 4 5 5 5 5 4 4 7 8 9 10 10 10 10 9 9 9 8 8 9 9 8 8 8 7 6 6 5 4
5 4 4 4 4 3 4 4 4 4 4 4 3 3 3 4 5 5 5 4 4 4 6 9 9 10 11 10 10 10 10 9 8 8 9 8 8 8 7 6 5 4 3
4 4 4 4 4 4 4 5 4 4 3 4 3 3 3 3 4 5 5 6 5 5 4 6 9 9 10 10 11 11 11 10 10 9 9 8 7 7 7 6 5 4 3
4 4 4 4 4 4 4 5 5 4 3 3 3 2 2 3 3 4 6 5 5 5 5 4 4 6 9 9 10 11 11 11 11 10 9 9 8 8 7 6 5 4 3
4 4 4 4 4 4 5 6 4 5 4 3 2 0 1 1 2 3 4 4 5 6 5 5 4 4 4 8 9 10 11 11 11 11 10 10 9 8 7 6 6 4 3
5 4 4 4 4 4 5 6 5 4 4 4 3 2 0 1 2 3 3 4 5 4 6 7 6 6 4 3 6 9 9 9 11 11 10 10 9 9 8 7 6 4 4
5 5 5 4 4 5 5 6 7 7 5 5 4 4 4 4 2 1 4 4 5 5 5 5 6 6 6 5 5 8 9 8 10 11 10 10 10 9 8 7 6 5 4
5 5 5 5 5 5 5 6 6 6 6 5 4 4 2 3 4 2 1 2 4 5 6 6 7 7 7 5 6 8 10 10 10 11 11 10 10 10 9 7 7 6 5
5 5 4 4 4 4 6 6 5 6 6 6 5 4 3 2 2 3 3 2 2 3 4 5 5 6 7 6 6 8 11 10 10 10 10 10 10 10 9 8 8 7 6
4 5 5 3 3 3 5 5 6 7 6 6 5 5 5 5 4 4 3 3 3 2 3 4 5 5 5 6 8 11 12 11 10 10 9 9 10 10 10 9 8 7 6
4 6 5 4 3 3 4 4 5 6 7 7 7 6 5 5 4 4 4 3 2 2 2 2 4 4 5 5 6 11 11 12 11 10 9 8 8 9 9 9 8 8 7
5 6 6 5 4 3 3 3 3 5 5 7 8 7 5 6 5 5 5 5 3 2 3 4 2 4 4 5 7 11 8 12 11 10 9 9 8 8 8 8 7 7 7
5 6 6 6 5 4 3 2 2 3 3 5 6 6 5 5 5 5 5 5 6 5 6 4 3 4 4 4 7 7 6 11 12 11 10 9 8 8 8 7 6 6 5
7 7 6 6 6 5 5 3 2 2 2 2 3 5 5 5 5 6 6 5 5 5 4 4 3 3 4 5 8 7 6 11 12 11 11 10 9 8 7 7 7 7 6
7 8 7 6 6 6 5 4 3 3 1 1 2 4 5 5 5 5 5 6 6 5 4 3 2 3 4 6 6 5 5 5 6 10 10 10 9 8 8 8 8 8 7
7 7 7 6 6 6 6 5 4 4 3 2 2 2 3 4 5 5 5 6 6 5 4 5 3 3 4 6 7 7 6 5 5 10 12 11 10 9 9 9 8 8 8
6 7 7 7 6 6 6 5 4 4 3 3 2 1 2 3 4 4 5 6 5 5 4 5 4 2 3 5 7 6 7 5 6 8 10 10 11 11 10 10 9 9 8
6 7 6 6 6 6 5 5 4 4 4 3 2 1 1 2 4 5 5 6 6 6 5 6 5 4 4 5 6 6 6 4 5 6 7 8 11 12 11 11 10 9 9
6 6 6 7 6 5 5 5 4 4 4 4 3 2 1 1 1 3 4 5 6 5 5 5 6 5 5 6 6 5 6 6 5 4 6 5 6 6 6 9 10 10 9
6 5 6 6 7 6 10 9 6 3 3 3 3 3 2 2 3 1 4 7 8 8 7 6 5 7 7 7 6 7 7 7 4 4 5 5 5 6 5 4 8 10 10
5 5 6 6 6 8 12 11 9 4 3 3 3 3 2 2 3 2 1 5 7 9 9 6 7 7 8 8 9 9 7 6 5 6 6 5 4 5 4 5 10 11 11
4 4 5 5 5 8 12 11 9 5 3 3 3 3 2 2 2 2 3 3 4 4 5 5 6 6 7 8 8 8 9 9 8 4 3 4 3 3 4 4 9 10 9
4 4 4 4 5 7 12 12 9 3 3 4 4 3 2 2 2 2 3 4 5 4 4 7 7 9 12 14 12 10 10 10 7 3 2 4 4 3 3 3 5 9 9
4 4 4 4 4 5 10 11 10 3 3 3 3 4 4 3 1 2 3 4 5 4 5 7 8 10 10 13 14 10 10 10 7 4 3 4 4 4 3 1 2 2 4
Wind_Direction
247 241 236 227 221 216 213 206 197 194 198 200 203 209 216 220 225 225 234 241 236 224 213 199 195 192 189 180 167 160 155 153 146 142 141 139 137 132 129 126 124 120 116
247 242 240 231 226 217 210 202 196 194 200 201 210 211 214 215 222 220 217 233 235 223 215 209 203 197 195 187 177 169 163 158 156 152 150 148 146 143 139 136 133 128 121
258 244 240 234 230 219 207 195 194 191 202 207 214 214 211 212 213 215 210 207 217 218 210 212 209 202 199 192 183 177 171 168 166 163 161 158 156 154 152 149 144 141 135
263 253 248 243 229 213 205 199 193 196 205 207 211 214 213 210 215 212 204 199 197 202 207 213 210 204 204 198 189 185 181 178 176 174 171 167 166 164 164 163 158 155 153
270 251 244 243 229 216 209 209 197 194 201 207 216 218 215 215 213 210 202 200 196 189 189 210 210 205 205 203 198 193 189 187 185 184 180 175 173 173 172 170 170 169 169
279 263 250 242 228 218 214 210 201 196 198 199 228 231 216 225 209 205 204 198 193 192 189 192 200 208 207 205 204 201 197 193 192 193 189 182 180 181 182 181 180 181 185
288 269 259 245 227 223 220 210 201 203 203 171 156 292 314 228 212 212 200 189 196 196 187 190 190 190 204 210 207 207 205 200 197 199 197 190 185 185 187 186 185 187 193
295 283 257 245 233 229 225 212 199 194 196 175 161 140 226 298 258 214 195 198 201 189 195 199 192 191 189 189 205 210 211 207 205 204 202 195 188 188 189 187 189 193 191
298 284 270 253 239 228 227 218 206 198 201 191 179 163 169 203 214 227 210 201 191 192 200 193 196 195 192 189 192 210 210 210 211 209 201 195 191 190 189 188 190 186 176
300 293 278 259 245 235 232 226 216 206 197 194 192 195 174 154 160 193 234 201 197 200 200 199 200 199 194 191 195 198 203 206 209 210 202 197 193 189 186 188 185 174 166
314 311 295 275 254 241 235 229 222 213 205 196 184 176 173 169 162 160 186 191 202 212 201 199 193 195 196 194 194 199 199 201 205 208 206 198 191 188 185 184 179 175 171
321 326 317 295 277 259 245 233 223 217 214 205 196 183 173 170 180 171 167 174 192 205 198 196 195 194 193 195 202 198 195 195 199 199 198 193 191 188 186 185 183 179 179
328 329 328 313 293 276 263 244 224 220 214 210 205 202 195 187 165 160 156 154 166 185 184 204 202 193 194 191 199 193 193 190 191 191 190 186 184 184 185 185 185 183 182
322 328 333 336 329 311 290 261 237 225 215 214 212 206 202 197 186 175 165 156 162 182 199 210 191 191 188 186 191 185 188 185 183 183 179 176 174 174 175 181 184 185 181
335 342 344 348 347 344 332 304 260 240 221 215 214 209 206 198 193 195 182 174 172 185 204 202 195 187 180 174 178 180 177 182 178 174 169 167 168 171 175 175 169 161 155
344 344 350 351 354 353 352 347 325 287 243 224 210 205 205 197 197 197 195 193 188 179 190 187 191 173 173 173 171 167 168 169 169 165 163 161 158 155 154 154 146 139 136
347 350 350 352 354 355 355 356 352 342 309 267 235 214 211 199 194 196 192 193 194 181 180 170 163 158 161 161 155 153 150 150 153 151 150 149 149 147 146 142 139 138 135
347 348 350 354 355 355 354 356 355 348 334 317 280 233 223 209 198 192 194 193 190 181 171 166 161 163 163 161 151 146 143 144 141 143 141 140 141 141 140 139 137 134 132
347 350 354 354 348 345 344 345 346 345 339 320 303 265 238 213 206 198 193 191 184 181 165 156 151 141 135 148 141 133 131 126 135 134 132 133 134 132 130 128 127 126 124
347 347 346 344 340 336 337 340 346 347 343 337 324 300 270 231 215 198 192 185 172 167 162 159 149 142 137 142 142 141 135 123 123 125 118 117 120 117 121 121 122 121 119
348 342 345 345 342 337 340 347 347 345 344 348 352 357 350 19 205 192 185 176 169 164 163 160 151 148 150 155 155 143 136 126 107 115 117 112 113 108 110 116 118 119 119
342 346 349 345 346 345 345 356 2 348 344 352 354 357 3 29 32 49 188 183 175 168 167 160 154 160 159 152 141 145 140 136 124 128 116 103 105 105 101 104 116 119 119
340 342 345 346 343 339 350 1 8 7 354 352 353 354 5 17 22 17 126 164 172 172 172 161 159 163 160 159 152 151 146 129 120 137 118 100 96 97 89 100 113 115 117
335 333 336 341 339 343 355 360 6 9 1 360 357 351 354 353 359 41 82 103 113 134 159 161 164 161 156 152 147 138 129 110 101 99 98 106 101 94 87 86 104 107 109
333 329 327 340 344 339 351 358 6 356 2 358 351 351 352 352 354 93 111 116 107 95 100 126 133 137 141 140 137 131 134 136 130 116 83 110 122 101 82 70 82 95 103
320 326 333 341 342 337 346 355 2 355 357 352 348 351 351 348 7 118 124 129 125 117 116 112 112 120 132 141 144 148 149 147 135 134 144 119 131 130 118 85 78 87 91